Find Starlink 4374

NORAD ID: 53652 Int'l Des: 2022-105 Owner: SPXS Country: US Constellation: starlink operational
LEOCIRCULARRETROGRADESSO

リアルタイム位置

3D地球を読み込み中...

Starlink 4374について

説明を読み込み中...

次回通過

Passes for default location (London). Set your location on the main map for personalized predictions.

高度履歴

Loading altitude history...

軌道要素

1 53652U 22105E 26126.83300299 -.00000279 00000-0 -15221-4 0 9997
2 53652 97.5299 7.3120 0002444 95.6180 264.5325 15.05651243201978
Epoch: May 6, 2026 • Age: 5 hours

現在のステータス

高度 552.0 km
速度 7.59 km/s
衛星直下点 27.18°N, 55.29°W
打ち上げ日 Aug 31, 2022
運用期間 3.6 years
タイプ internet

技術仕様

分類 Payload
質量 300.00 kg
乾燥質量 290.00 kg
総質量 300.00 kg
長さ 0.20 m
直径 2.80 m
スパン 9.00 m
形状 Box + pan
製造者 SPXS
バスタイプ Starlink
フェーズステータス In Orbit
所有者/国 SPXS/US

Most Searched